Vorticity
12 12 12 12 11 11 9 9 9 9 12 15 15 16 16 15 12 11 11 12 12 12 13 13 12 11 11 11 10 9 7 7 6 6 6 6 6 6 6 7 7 6 6 6 6 6 7 7 8 9 10 11 11 11 10 9 9 9 8 8 7 7 7 6 6 6 6 5 5 6 6 6 6 6 6 5 5 5 5 7 8 9 9 10 10
9 9 10 10 10 10 9 9 9 9 12 14 13 14 16 15 13 13 12 12 13 13 13 13 12 12 12 12 12 11 9 8 7 7 7 7 6 6 7 7 6 6 6 6 6 6 7 7 8 8 9 10 11 11 10 10 10 9 8 8 8 7 7 7 7 6 6 6 6 6 6 7 7 7 7 6 6 7 7 8 9 9 10 10 11
8 9 10 9 9 9 9 9 9 10 11 11 10 11 11 12 12 13 13 13 14 15 15 15 15 14 14 14 13 13 11 10 9 9 8 7 7 7 7 6 6 6 6 6 6 7 7 7 8 8 9 9 10 10 10 10 9 9 9 8 7 7 6 7 8 7 7 6 6 7 7 7 7 7 7 7 7 8 8 9 9 10 10 11 12
8 10 11 10 10 9 9 9 10 11 11 10 10 10 10 10 10 11 11 13 13 14 15 15 16 16 15 14 13 13 12 11 10 9 8 7 7 7 6 6 6 6 6 6 6 7 7 7 7 8 8 8 9 9 10 10 9 9 9 8 8 8 7 8 9 8 7 7 7 7 8 7 8 8 8 8 8 8 8 9 9 10 11 12 14
8 9 11 11 10 10 10 10 10 11 12 11 10 10 10 9 9 9 10 10 12 13 13 13 14 14 14 14 13 12 11 10 10 8 7 7 7 7 6 6 6 6 6 6 7 7 7 7 7 8 8 8 9 9 9 9 9 9 9 9 9 8 9 10 10 9 8 7 7 7 7 7 7 7 7 8 8 8 8 8 9 10 12 13 15
10 9 10 10 10 9 9 9 9 10 11 10 8 8 8 8 10 9 9 9 11 11 12 12 13 13 13 13 11 11 10 9 9 8 8 7 7 7 7 6 6 7 7 7 7 7 7 7 7 7 8 8 8 9 9 9 9 9 9 9 9 10 12 12 11 10 8 7 7 7 7 7 7 7 7 7 7 8 9 8 9 11 14 16 18
9 9 9 10 10 10 10 10 10 11 12 10 8 7 8 9 9 9 9 10 10 10 11 11 11 11 12 11 10 10 10 9 9 8 8 8 7 7 7 7 7 7 8 8 8 8 8 8 8 8 8 8 8 8 9 9 10 10 10 10 11 13 14 13 11 9 7 7 7 7 7 7 6 7 7 6 6 6 7 9 10 12 15 19 21
9 9 9 10 11 11 11 12 11 11 12 11 9 9 9 9 9 9 9 9 10 10 9 9 9 9 9 9 9 9 9 9 9 9 8 8 8 8 8 9 9 9 9 9 8 8 8 8 8 8 8 8 9 10 11 11 11 11 11 12 15 16 15 12 9 7 7 7 7 7 6 6 6 6 6 6 7 7 8 10 12 14 16 20 22
11 10 10 10 9 9 10 10 10 10 10 9 8 8 8 7 6 7 7 7 7 7 6 6 7 7 7 7 8 8 8 8 8 8 9 8 8 9 9 9 9 8 8 8 8 8 8 9 9 10 11 11 11 12 12 11 12 13 15 17 17 15 11 9 7 6 7 7 7 6 5 5 6 6 6 6 6 7 9 11 14 16 18 20 21
11 11 10 10 9 8 8 8 8 8 7 5 5 5 5 4 4 4 4 5 5 4 5 5 5 5 6 6 6 6 7 7 7 8 8 8 8 8 8 9 9 9 9 10 11 11 12 12 12 12 13 12 12 12 13 14 16 17 18 16 13 10 8 7 7 7 7 7 6 5 5 6 6 5 6 6 7 8 10 13 16 17 19 21 19
11 10 9 8 8 6 6 6 5 4 5 4 4 4 4 4 5 5 5 6 7 8 9 9 10 10 11 10 11 11 11 12 12 13 13 13 13 12 12 12 12 12 12 12 12 12 12 12 12 13 13 14 15 17 17 18 17 15 13 11 9 8 8 8 7 6 6 5 5 5 5 5 5 5 6 6 8 10 12 15 17 18 20 20 17
11 9 8 7 6 6 6 6 5 5 6 6 6 7 7 8 9 9 10 10 11 11 11 11 11 10 10 11 11 11 12 12 12 12 12 12 12 12 11 11 11 11 11 12 12 13 14 15 16 16 17 17 17 16 15 13 11 10 9 8 7 7 7 6 6 5 5 5 5 5 5 5 5 6 7 9 10 12 14 17 19 19 19 17 15
10 10 10 8 8 9 9 8 8 7 8 8 9 10 10 11 10 10 10 9 8 8 8 8 8 8 8 8 8 9 9 9 9 9 9 9 10 10 10 11 13 14 15 16 17 18 18 18 18 17 15 14 12 11 10 8 7 7 7 6 6 5 5 5 5 5 5 6 6 6 6 7 7 7 9 11 12 15 17 19 20 19 17 14 13
8 8 9 9 10 10 9 9 8 8 9 10 10 11 10 9 9 8 8 7 8 8 8 8 8 8 8 8 9 10 9 9 10 10 10 11 12 14 15 16 17 17 17 17 16 16 15 14 13 11 10 9 8 7 6 6 6 5 5 4 5 5 5 5 5 5 6 6 7 7 7 8 9 10 11 13 15 18 19 20 19 17 14 12 12
8 8 7 8 9 9 9 10 9 9 10 9 10 10 10 8 8 8 8 8 8 8 7 7 7 7 8 8 8 8 9 9 10 11 13 14 15 16 16 16 16 15 13 12 11 10 9 8 7 6 5 5 4 4 4 3 3 3 3 4 5 5 6 6 6 7 8 7 8 8 9 10 11 12 14 16 18 20 20 20 17 13 11 12 13
10 9 8 7 7 7 8 9 10 10 9 8 9 9 9 8 8 8 8 6 5 5 5 6 7 7 7 7 8 8 9 10 12 13 14 15 15 14 13 12 11 10 8 7 6 4 4 3 3 2 2 2 1 1 2 2 2 4 5 6 7 8 9 9 9 9 9 9 10 10 12 13 14 16 17 19 20 21 21 19 15 11 11 12 13
11 11 10 10 9 7 8 9 9 10 10 10 10 9 8 8 7 6 6 5 4 5 6 7 7 7 7 7 8 8 9 12 14 15 14 14 14 12 10 8 7 5 4 4 3 2 2 1 1 1 1 1 1 2 3 3 4 7 9 9 10 11 11 11 11 11 11 12 13 14 15 16 17 18 19 21 21 20 18 16 13 12 13 13 14
10 10 11 12 11 9 8 8 8 9 9 9 9 8 8 7 7 6 6 6 7 7 8 8 9 9 9 9 9 9 11 14 15 14 14 12 10 7 6 5 4 3 3 2 2 2 2 1 2 2 2 2 3 4 5 6 7 10 12 13 13 14 15 16 15 16 16 17 17 17 18 18 19 20 21 22 20 17 15 14 13 13 14 16 18
9 10 11 12 11 11 9 8 8 8 8 8 8 8 7 5 5 5 5 6 8 9 9 10 10 11 11 11 11 11 14 16 15 14 12 8 6 4 3 3 3 3 3 2 3 3 3 3 3 3 4 5 5 7 9 10 13 16 18 19 20 20 20 20 19 19 19 18 17 17 18 19 20 22 22 20 17 15 14 12 12 15 16 17 17
8 8 10 10 11 12 10 9 9 8 8 8 7 6 5 4 4 5 6 8 9 9 10 9 10 12 12 12 12 13 15 16 15 12 9 6 4 3 3 4 4 4 4 4 4 5 5 6 7 6 7 8 9 12 15 18 21 23 23 24 24 22 21 21 20 19 17 17 17 19 20 21 22 22 21 17 14 13 12 12 14 15 14 13 12
9 8 8 8 9 10 10 10 10 8 7 7 6 6 5 5 5 7 9 10 10 10 9 9 10 11 11 12 13 14 16 16 13 8 5 4 3 3 4 5 6 6 6 6 5 6 8 9 10 10 10 12 15 18 21 24 25 24 23 23 22 21 21 21 19 18 18 18 20 22 22 21 20 20 19 15 12 11 11 12 12 12 11 10 9
9 9 9 8 8 9 10 11 11 10 9 8 8 8 7 7 9 10 10 9 10 10 10 10 11 12 12 13 14 15 16 14 10 6 4 3 3 5 5 6 6 6 7 7 7 8 9 10 12 13 14 17 20 22 23 24 22 20 19 19 19 21 22 22 21 20 20 21 22 22 20 19 18 18 16 12 10 10 11 11 11 11 11 11 10
10 10 10 10 10 10 11 11 11 10 10 10 10 8 8 10 11 10 9 9 10 10 10 10 12 14 13 13 14 15 14 10 6 5 5 4 4 4 5 6 6 6 6 8 9 10 11 13 14 15 16 18 20 21 21 21 19 18 17 17 19 20 21 22 22 22 21 22 21 20 18 18 18 16 12 10 10 10 11 11 10 10 10 11 11
11 11 11 11 11 11 12 12 12 11 10 9 8 7 9 11 11 9 8 8 10 11 10 11 14 14 12 12 13 12 9 6 5 3 4 5 5 4 5 5 5 6 8 10 10 11 13 14 14 15 16 16 18 19 19 18 17 16 15 16 17 18 19 21 22 22 22 21 20 19 18 18 17 14 11 11 11 10 11 11 10 11 11 11 11
13 12 12 14 14 14 15 15 14 13 9 7 7 9 12 12 9 8 8 9 11 12 11 12 14 12 10 12 12 8 4 3 4 3 3 5 4 4 5 5 6 9 11 11 12 12 13 13 13 14 14 15 17 17 16 15 14 14 14 15 15 15 17 20 21 22 22 22 20 19 17 16 15 13 12 12 11 11 10 10 11 11 11 11 12
14 14 14 16 15 15 16 15 13 11 7 6 9 12 11 10 9 9 10 11 12 13 13 13 12 11 11 11 9 5 1 1 3 3 3 4 4 4 5 7 9 12 12 12 12 11 11 12 12 13 14 15 15 15 13 12 11 12 13 12 12 13 16 20 22 22 22 22 20 17 15 15 14 13 12 12 11 10 10 11 11 11 11 13 13
15 15 15 15 15 15 14 11 11 11 7 5 8 10 9 9 10 10 11 12 13 14 13 11 9 10 11 8 4 1 0 1 2 3 3 4 4 5 7 10 13 13 13 11 10 9 10 10 11 12 14 14 15 14 11 9 9 10 11 11 10 11 16 20 22 21 21 20 17 14 13 14 14 12 11 10 9 10 11 11 11 12 13 13 10
16 15 16 16 16 13 9 7 11 10 3 0 5 8 9 10 11 11 11 12 13 13 10 8 9 10 8 3 1 1 1 1 2 3 4 4 5 8 12 14 14 13 10 8 8 9 9 9 10 11 13 15 16 15 11 9 8 9 11 12 9 10 16 21 20 19 21 19 15 14 14 14 13 11 9 9 10 11 12 12 13 14 12 10 12
15 15 18 17 12 7 4 6 9 6 0 -0 4 7 8 11 12 11 12 11 11 11 11 10 9 6 2 0 1 1 1 2 3 4 4 5 8 12 14 14 12 11 9 8 9 10 9 8 9 10 12 15 18 17 15 12 9 9 12 13 9 10 17 20 18 19 21 17 13 14 13 12 12 10 9 11 12 11 12 13 14 12 10 15 23
14 16 18 14 7 2 2 6 9 8 3 1 2 4 8 11 11 10 10 11 12 13 12 8 4 1 0 1 1 1 2 4 3 4 6 10 15 16 14 11 10 8 8 9 9 9 8 8 8 9 11 16 19 19 18 16 13 12 13 13 11 11 16 19 19 19 18 14 12 13 12 12 12 10 11 13 12 11 14 14 11 11 17 24 25
17 19 16 9 4 4 6 11 13 9 4 0 0 3 8 12 13 14 14 14 14 11 6 2 0 -0 1 2 1 2 4 4 4 9 14 17 16 12 10 9 7 5 6 7 7 7 8 9 10 11 12 16 19 19 18 18 17 15 15 15 12 11 15 19 20 19 16 13 12 12 13 13 12 11 12 13 12 13 13 10 10 19 26 24 14
21 17 10 5 6 10 13 14 11 6 3 3 4 6 10 15 18 17 14 11 8 5 2 2 2 2 3 3 3 4 5 5 10 17 18 15 10 7 6 5 3 4 5 4 4 5 5 7 11 14 15 18 20 18 16 18 19 18 17 16 12 11 16 20 20 18 16 12 12 14 13 12 13 13 12 12 13 12 9 10 19 27 24 14 7
18 9 4 5 8 11 10 6 3 2 3 6 8 11 15 17 14 10 7 5 3 4 4 4 4 4 4 4 5 6 6 11 17 19 13 7 5 5 3 2 2 4 4 2 3 3 2 3 9 15 20 21 19 17 16 17 19 21 20 17 12 12 16 20 19 16 13 11 12 13 12 13 14 13 12 13 13 9 10 20 27 24 13 7 6
11 5 5 8 8 6 5 3 4 7 11 13 14 15 14 9 5 3 3 3 3 5 5 5 5 6 6 7 7 7 10 17 20 13 5 3 3 2 -0 1 3 3 2 2 2 1 0 0 4 15 25 24 19 18 18 17 20 24 21 15 12 12 16 20 18 12 10 11 12 11 12 14 14 12 13 13 9 10 21 29 23 13 8 7 6
8 5 7 8 8 7 8 9 11 13 13 11 10 7 4 1 2 3 4 4 5 6 6 6 6 6 7 9 9 10 16 20 15 6 1 2 1 -1 -0 2 2 1 2 3 2 1 1 -1 2 17 30 26 18 19 20 18 21 25 21 14 11 13 18 20 15 10 10 11 11 12 14 13 12 13 13 8 9 19 29 23 11 8 10 7 5
5 5 5 6 7 8 8 8 8 7 5 4 3 3 3 3 5 5 5 6 6 6 6 7 7 8 9 10 10 12 17 17 9 2 1 1 -0 -0 1 1 0 1 3 3 2 3 3 -1 4 23 34 26 18 21 23 20 22 24 19 12 10 15 19 17 11 10 11 11 12 14 14 12 14 13 8 8 19 30 25 11 5 8 8 6 6
6 5 5 5 5 4 3 3 2 2 2 3 4 4 5 6 6 5 6 6 6 6 8 8 9 11 11 11 11 13 15 12 6 2 2 2 2 2 2 1 3 4 4 3 4 5 2 1 13 32 36 23 17 23 24 21 22 23 17 11 12 16 18 14 11 11 11 11 14 14 13 14 14 9 7 18 28 25 14 8 8 6 3 6 10
5 4 4 4 3 3 3 3 3 3 4 4 3 4 4 4 3 4 5 5 7 9 10 10 11 12 11 10 10 11 11 10 7 5 5 5 5 4 4 5 6 6 5 5 5 3 5 13 28 39 31 18 19 26 25 21 22 20 13 11 14 16 15 12 11 11 11 13 14 13 14 15 10 7 17 29 26 14 7 9 8 4 5 9 9
5 5 6 5 5 6 6 5 5 5 4 4 4 5 5 5 7 8 9 11 13 13 13 13 13 12 10 8 7 7 8 9 9 9 9 8 8 8 9 8 8 6 5 5 5 10 20 31 37 34 23 17 22 28 24 21 21 17 12 12 15 14 13 11 10 10 12 14 14 15 15 10 7 16 29 28 14 7 7 6 5 7 9 9 7
5 6 6 5 5 5 5 5 6 6 7 8 9 11 12 14 15 16 16 17 17 16 15 14 12 10 8 7 6 6 8 10 11 12 11 10 10 10 9 7 7 5 5 9 18 28 36 35 30 24 20 19 25 27 24 20 18 15 12 13 14 13 12 10 9 11 14 14 15 16 11 6 14 28 30 16 6 7 6 3 5 9 10 10 13
4 4 4 4 5 5 6 7 8 9 11 12 13 14 15 16 16 16 16 15 14 13 12 10 9 8 7 7 7 8 10 12 13 13 11 10 9 7 6 7 7 9 16 27 35 36 32 26 22 22 20 21 25 27 24 19 15 13 12 13 13 13 11 9 10 13 14 15 16 12 7 11 26 30 19 8 6 7 4 5 10 11 9 10 13
3 4 4 5 6 7 8 9 10 11 13 13 14 14 15 14 15 15 14 13 12 12 11 10 10 10 10 10 11 13 13 13 12 10 8 8 7 7 9 12 17 25 33 37 34 27 23 21 22 22 20 21 25 27 22 16 14 12 12 13 14 12 9 10 12 13 14 16 14 7 9 23 32 22 10 7 7 4 4 9 11 9 6 4 5
5 6 7 9 11 12 14 16 17 19 19 19 19 19 18 17 16 16 15 15 15 14 14 14 14 14 14 14 13 12 11 10 9 8 9 11 12 15 21 27 32 36 35 29 24 22 22 22 22 20 19 22 27 27 20 14 12 11 12 14 13 10 9 11 13 13 15 14 9 8 20 31 26 11 6 6 4 4 9 11 7 3 3 2 3
11 14 18 21 24 26 28 29 30 30 30 29 29 28 26 25 24 22 20 19 18 16 16 15 14 14 14 13 13 13 13 13 14 16 20 22 25 29 33 34 33 30 25 22 22 22 21 20 21 19 19 24 29 24 16 11 11 12 14 14 11 9 11 13 13 14 15 10 7 17 31 28 14 6 6 4 4 9 12 7 2 2 3 3 4
27 30 33 33 33 33 32 31 31 31 32 32 32 32 32 32 31 30 29 27 25 24 23 22 21 21 20 20 21 22 23 24 26 29 30 31 33 33 31 28 25 22 21 21 21 20 19 20 20 17 21 29 29 20 11 9 11 13 14 12 10 11 12 12 14 15 11 7 14 29 31 17 6 5 5 3 7 12 9 2 2 5 5 6 7
34 33 31 29 28 27 26 26 27 27 27 28 29 29 30 31 31 32 32 32 31 31 30 29 30 30 30 30 31 32 32 33 33 32 31 30 29 26 23 22 21 20 20 19 18 18 19 20 18 20 27 31 24 13 9 11 12 13 12 10 10 11 12 13 15 13 7 11 25 32 21 8 5 5 4 6 12 10 3 1 5 6 6 7 8
28 26 24 23 23 23 22 22 23 22 23 24 25 25 26 27 28 28 29 29 29 30 30 30 31 32 32 33 33 32 31 31 29 27 26 25 22 21 20 20 18 17 17 17 17 18 20 20 21 26 31 27 16 10 10 12 13 12 11 10 11 11 12 14 14 9 9 21 31 24 10 5 6 4 5 11 11 4 -0 2 4 2 3 6 7
19 18 17 17 16 16 17 18 18 18 19 19 20 21 23 23 24 25 25 25 26 26 27 28 29 29 29 29 28 26 26 25 23 22 21 20 18 18 17 15 14 15 16 16 17 20 22 23 27 31 28 19 11 9 11 13 12 11 10 11 12 12 14 15 10 8 18 29 26 13 6 6 6 4 8 12 6 -0 1 4 2 -0 2 3 4
24 23 22 20 19 17 16 15 14 15 16 16 15 17 18 18 19 21 22 23 24 25 26 26 25 25 24 24 23 22 21 20 19 18 17 15 15 14 13 12 14 15 15 17 21 25 27 28 30 29 21 12 8 11 13 12 11 10 11 12 12 13 14 12 8 14 27 29 17 7 6 6 4 6 10 8 2 0 4 5 2 0 -0 -1 1
29 28 28 28 28 27 25 21 17 14 13 14 14 13 13 14 15 17 20 22 24 23 22 22 22 21 21 21 20 19 17 16 15 14 13 12 12 11 11 13 15 16 19 26 30 32 32 31 28 21 13 8 10 13 13 10 10 11 12 12 12 14 12 8 12 24 30 20 8 6 8 5 5 9 9 3 1 4 6 4 3 1 -3 -2 2
18 18 20 22 24 27 29 30 25 18 14 13 14 13 12 12 13 16 20 22 22 20 20 21 21 20 19 18 16 15 14 13 12 12 11 11 11 11 13 17 21 25 31 36 36 33 31 27 20 13 8 9 12 13 11 10 11 12 11 11 13 12 8 10 21 29 23 10 6 8 7 5 7 10 6 1 3 6 4 4 4 0 -4 -2 3
Height
5611 5609 5607 5605 5603 5602 5600 5598 5597 5595 5594 5593 5591 5589 5588 5586 5585 5584 5582 5581 5580 5579 5578 5577 5577 5576 5575 5574 5572 5572 5571 5570 5569 5568 5567 5566 5565 5563 5562 5560 5559 5558 5556 5555 5553 5551 5550 5548 5546 5545 5543 5541 5540 5538 5536 5534 5533 5531 5529 5527 5525 5523 5521 5519 5517 5515 5511 5508 5507 5504 5501 5499 5496 5492 5489 5486 5483 5480 5477 5474 5470 5467 5464 5460 5456
5608 5606 5604 5602 5600 5598 5597 5595 5593 5592 5590 5589 5587 5585 5584 5582 5580 5579 5578 5577 5575 5574 5573 5572 5572 5571 5570 5568 5567 5566 5565 5565 5564 5563 5562 5561 5559 5558 5557 5555 5553 5552 5550 5549 5547 5545 5544 5542 5540 5538 5537 5535 5533 5531 5529 5527 5525 5523 5521 5519 5518 5515 5513 5511 5509 5507 5504 5501 5499 5496 5493 5491 5488 5485 5482 5478 5475 5472 5469 5466 5462 5459 5455 5452 5448
5604 5603 5601 5599 5597 5595 5593 5591 5590 5588 5587 5585 5583 5581 5580 5578 5576 5575 5574 5572 5571 5570 5569 5568 5567 5566 5565 5563 5562 5561 5560 5559 5558 5557 5556 5555 5554 5553 5551 5550 5548 5546 5545 5543 5541 5539 5537 5536 5534 5532 5530 5528 5526 5524 5522 5520 5518 5516 5514 5512 5510 5508 5506 5503 5501 5499 5496 5493 5491 5488 5486 5483 5480 5477 5474 5471 5468 5464 5461 5457 5454 5450 5446 5443 5439
5601 5599 5597 5595 5593 5591 5589 5587 5586 5584 5583 5581 5579 5577 5576 5574 5572 5571 5570 5568 5567 5565 5564 5563 5562 5561 5560 5559 5558 5556 5555 5554 5553 5552 5551 5550 5549 5547 5546 5544 5542 5541 5539 5537 5535 5533 5531 5529 5527 5525 5523 5521 5519 5516 5514 5512 5510 5508 5506 5504 5502 5500 5498 5496 5493 5491 5488 5486 5483 5481 5478 5475 5472 5469 5466 5463 5460 5457 5453 5449 5445 5441 5438 5434 5430
5597 5596 5594 5592 5590 5588 5586 5584 5582 5580 5579 5577 5575 5573 5572 5570 5568 5567 5565 5564 5563 5561 5560 5559 5557 5556 5555 5554 5553 5552 5550 5549 5548 5547 5546 5544 5543 5542 5540 5538 5536 5534 5533 5530 5528 5526 5524 5522 5520 5518 5516 5513 5511 5509 5507 5505 5503 5501 5499 5497 5494 5492 5490 5488 5485 5483 5481 5478 5476 5473 5470 5467 5465 5462 5458 5455 5452 5448 5445 5442 5437 5433 5429 5425 5421
5593 5592 5590 5588 5586 5584 5582 5580 5578 5577 5575 5573 5572 5570 5568 5566 5564 5563 5561 5560 5558 5557 5555 5554 5553 5552 5550 5549 5548 5547 5545 5544 5543 5541 5540 5539 5537 5536 5534 5532 5530 5528 5526 5524 5522 5520 5517 5515 5513 5511 5509 5506 5504 5502 5500 5498 5496 5494 5492 5489 5487 5484 5482 5480 5477 5475 5473 5471 5468 5465 5463 5460 5457 5454 5451 5448 5444 5440 5436 5433 5429 5426 5421 5416 5412
5589 5588 5586 5584 5582 5580 5578 5576 5575 5573 5572 5570 5568 5566 5564 5562 5560 5559 5557 5556 5554 5553 5551 5550 5548 5547 5546 5544 5543 5542 5540 5539 5537 5536 5534 5533 5531 5529 5528 5526 5524 5522 5520 5517 5515 5513 5511 5508 5506 5504 5501 5499 5497 5495 5493 5491 5489 5486 5484 5482 5479 5477 5474 5472 5470 5467 5465 5463 5460 5458 5455 5452 5449 5446 5443 5440 5437 5433 5428 5424 5420 5417 5414 5409 5404
5585 5583 5581 5579 5577 5576 5574 5572 5571 5569 5568 5566 5564 5562 5560 5558 5556 5555 5553 5552 5550 5548 5547 5545 5544 5542 5541 5540 5538 5536 5535 5533 5532 5530 5528 5527 5525 5523 5521 5519 5517 5515 5513 5511 5509 5506 5504 5502 5499 5497 5494 5492 5490 5488 5486 5484 5481 5479 5477 5474 5472 5470 5467 5465 5463 5460 5458 5455 5453 5450 5447 5444 5441 5438 5435 5432 5428 5425 5421 5417 5413 5408 5404 5401 5398
5581 5579 5577 5575 5573 5571 5570 5568 5567 5565 5564 5562 5560 5558 5556 5554 5552 5551 5549 5547 5546 5544 5542 5541 5539 5537 5536 5534 5533 5531 5529 5527 5526 5524 5522 5520 5519 5517 5515 5513 5510 5508 5506 5504 5502 5499 5497 5495 5492 5490 5488 5485 5483 5481 5479 5476 5474 5472 5469 5467 5465 5462 5460 5458 5455 5453 5450 5448 5445 5442 5440 5437 5433 5430 5427 5424 5420 5416 5412 5409 5405 5401 5397 5393 5390
5577 5575 5573 5571 5569 5568 5566 5564 5562 5561 5559 5558 5556 5554 5552 5550 5548 5546 5545 5543 5541 5539 5537 5536 5534 5532 5531 5529 5527 5525 5524 5522 5520 5518 5516 5514 5512 5510 5508 5506 5504 5502 5499 5497 5495 5493 5490 5488 5485 5483 5481 5478 5476 5474 5472 5469 5467 5465 5462 5460 5458 5455 5453 5450 5448 5445 5443 5440 5437 5435 5432 5429 5426 5422 5419 5415 5412 5408 5404 5400 5397 5393 5390 5385 5382
5573 5571 5569 5567 5565 5564 5562 5560 5558 5556 5554 5553 5551 5549 5547 5546 5544 5542 5540 5538 5536 5534 5532 5531 5529 5527 5525 5523 5521 5520 5518 5516 5514 5512 5510 5508 5506 5504 5502 5499 5497 5495 5493 5490 5488 5486 5483 5481 5479 5476 5474 5472 5469 5467 5465 5463 5460 5458 5456 5453 5451 5448 5446 5443 5441 5438 5435 5433 5430 5427 5424 5421 5418 5414 5411 5407 5403 5400 5397 5393 5389 5385 5382 5379 5375
5570 5567 5565 5563 5561 5560 5558 5556 5553 5551 5550 5548 5547 5545 5543 5541 5539 5537 5535 5533 5531 5529 5527 5525 5523 5521 5519 5517 5516 5514 5512 5510 5508 5506 5504 5502 5499 5497 5495 5493 5491 5488 5486 5484 5481 5479 5476 5474 5472 5470 5467 5465 5463 5461 5459 5456 5454 5451 5449 5446 5444 5441 5438 5436 5433 5430 5428 5425 5422 5419 5416 5413 5409 5406 5403 5399 5395 5391 5388 5385 5382 5378 5375 5372 5369
5565 5563 5561 5559 5557 5555 5553 5551 5548 5546 5545 5543 5541 5540 5538 5536 5534 5532 5530 5528 5526 5524 5522 5520 5518 5516 5514 5512 5510 5508 5506 5504 5502 5500 5498 5496 5493 5491 5489 5486 5484 5482 5479 5477 5475 5472 5470 5468 5466 5463 5461 5459 5457 5455 5453 5450 5447 5445 5442 5439 5437 5434 5431 5428 5426 5423 5420 5417 5414 5411 5408 5404 5401 5397 5394 5391 5387 5383 5380 5376 5373 5371 5368 5365 5363
5561 5559 5557 5554 5553 5550 5548 5546 5543 5541 5540 5538 5536 5535 5533 5531 5529 5527 5525 5523 5521 5519 5517 5515 5513 5511 5509 5506 5504 5502 5500 5498 5496 5493 5491 5490 5487 5484 5482 5480 5477 5475 5473 5471 5468 5466 5464 5462 5460 5458 5456 5454 5451 5449 5446 5444 5441 5438 5435 5432 5429 5426 5424 5421 5418 5414 5411 5409 5405 5402 5399 5396 5392 5388 5385 5382 5379 5376 5372 5369 5366 5363 5361 5358 5355
5556 5554 5552 5549 5547 5545 5543 5540 5538 5536 5534 5532 5531 5529 5527 5525 5523 5521 5520 5518 5516 5514 5512 5509 5507 5505 5503 5501 5498 5496 5494 5492 5489 5487 5485 5483 5480 5478 5476 5473 5471 5469 5467 5465 5463 5461 5458 5456 5454 5452 5450 5448 5445 5443 5440 5437 5434 5431 5428 5425 5421 5419 5416 5412 5409 5406 5403 5400 5397 5394 5391 5387 5384 5380 5376 5373 5370 5367 5365 5362 5359 5357 5354 5351 5348
5551 5549 5546 5544 5542 5540 5537 5535 5533 5531 5529 5527 5526 5524 5522 5520 5518 5516 5514 5512 5510 5508 5506 5503 5501 5499 5497 5494 5492 5490 5488 5485 5483 5481 5478 5476 5474 5472 5470 5468 5466 5463 5461 5459 5457 5455 5453 5450 5448 5446 5444 5441 5439 5436 5433 5430 5426 5423 5420 5416 5413 5410 5407 5404 5400 5397 5394 5391 5388 5385 5382 5379 5375 5372 5369 5365 5362 5360 5358 5356 5354 5352 5349 5346 5342
5546 5543 5541 5539 5537 5534 5532 5530 5527 5526 5524 5522 5520 5518 5516 5514 5512 5510 5508 5506 5504 5502 5499 5497 5495 5492 5490 5488 5486 5484 5481 5479 5477 5475 5473 5471 5468 5466 5464 5462 5460 5458 5456 5454 5452 5449 5447 5444 5442 5439 5437 5434 5431 5428 5425 5422 5418 5415 5411 5408 5404 5400 5397 5394 5391 5388 5385 5381 5379 5375 5373 5370 5367 5364 5361 5358 5355 5353 5351 5349 5347 5345 5343 5340 5337
5540 5538 5536 5533 5531 5529 5527 5524 5522 5520 5518 5516 5514 5512 5510 5508 5505 5504 5502 5500 5497 5495 5493 5491 5488 5486 5484 5482 5480 5477 5475 5473 5471 5469 5467 5465 5463 5461 5459 5456 5454 5452 5450 5448 5445 5443 5440 5438 5435 5432 5430 5427 5424 5420 5417 5413 5410 5406 5402 5399 5395 5391 5388 5385 5381 5378 5375 5372 5369 5367 5364 5362 5359 5357 5354 5351 5349 5347 5345 5343 5341 5339 5337 5334 5333
5535 5532 5530 5528 5526 5523 5521 5519 5517 5514 5512 5510 5508 5506 5504 5501 5499 5497 5495 5493 5491 5489 5486 5484 5482 5480 5478 5475 5473 5471 5469 5467 5465 5463 5461 5459 5457 5455 5453 5451 5448 5446 5444 5442 5439 5436 5433 5431 5428 5425 5422 5419 5416 5412 5408 5405 5401 5398 5394 5390 5387 5383 5379 5376 5372 5369 5366 5364 5361 5359 5356 5354 5352 5350 5347 5345 5343 5342 5340 5338 5336 5333 5331 5328 5327
5529 5526 5524 5522 5519 5517 5515 5513 5511 5508 5506 5504 5502 5499 5497 5495 5492 5490 5488 5486 5484 5482 5479 5477 5475 5473 5471 5469 5467 5465 5463 5461 5459 5457 5455 5453 5451 5449 5446 5444 5442 5440 5438 5435 5432 5429 5426 5423 5421 5418 5414 5411 5408 5404 5400 5397 5393 5389 5386 5382 5378 5375 5371 5368 5365 5361 5358 5355 5353 5351 5349 5347 5345 5343 5341 5339 5338 5336 5334 5333 5330 5328 5327 5324 5321
5522 5520 5518 5515 5513 5511 5508 5506 5504 5502 5500 5497 5495 5493 5491 5488 5486 5483 5482 5480 5477 5475 5473 5471 5469 5467 5465 5463 5461 5459 5457 5455 5453 5451 5449 5447 5445 5443 5440 5438 5436 5433 5431 5428 5425 5422 5419 5415 5412 5410 5407 5403 5400 5396 5392 5388 5385 5381 5378 5374 5371 5368 5364 5360 5357 5354 5351 5349 5346 5344 5343 5341 5339 5337 5336 5334 5333 5331 5329 5328 5326 5324 5322 5320 5317
5515 5513 5511 5508 5506 5504 5502 5500 5497 5495 5493 5491 5488 5486 5484 5481 5479 5477 5475 5473 5471 5468 5466 5464 5462 5460 5458 5456 5454 5452 5450 5449 5447 5445 5443 5441 5438 5436 5433 5431 5429 5426 5424 5421 5418 5415 5412 5408 5404 5402 5399 5396 5392 5388 5384 5380 5377 5373 5370 5367 5364 5361 5357 5354 5351 5347 5345 5343 5340 5338 5337 5335 5333 5332 5331 5330 5328 5326 5324 5323 5321 5319 5317 5315 5312
5508 5506 5503 5501 5499 5497 5495 5493 5490 5488 5486 5484 5482 5479 5477 5475 5472 5471 5469 5466 5464 5462 5459 5457 5455 5453 5451 5450 5448 5446 5444 5442 5440 5438 5436 5434 5432 5429 5426 5424 5421 5419 5416 5413 5410 5407 5404 5401 5398 5394 5391 5388 5385 5381 5377 5373 5370 5367 5364 5361 5358 5354 5351 5348 5345 5342 5339 5337 5335 5333 5331 5330 5329 5327 5326 5325 5324 5322 5320 5319 5317 5315 5313 5310 5307
5500 5498 5496 5494 5492 5490 5488 5485 5483 5481 5479 5477 5475 5473 5470 5468 5466 5464 5462 5459 5457 5455 5453 5451 5449 5446 5444 5443 5442 5440 5437 5436 5434 5432 5429 5427 5425 5423 5420 5417 5414 5412 5409 5406 5403 5400 5397 5394 5391 5388 5384 5381 5378 5375 5371 5367 5364 5361 5358 5355 5352 5349 5345 5342 5339 5336 5334 5332 5330 5328 5327 5326 5324 5323 5322 5321 5320 5318 5316 5315 5313 5311 5309 5306 5303
5493 5490 5488 5486 5484 5482 5480 5478 5476 5474 5472 5470 5468 5466 5464 5461 5459 5457 5455 5452 5450 5448 5446 5444 5442 5440 5438 5436 5435 5434 5431 5429 5427 5425 5423 5420 5418 5416 5413 5410 5407 5405 5402 5399 5396 5394 5391 5387 5384 5381 5378 5375 5372 5368 5365 5362 5358 5355 5352 5350 5347 5343 5340 5337 5334 5331 5329 5327 5325 5324 5322 5321 5320 5319 5318 5317 5316 5315 5313 5311 5309 5307 5305 5303 5300
5484 5482 5480 5478 5476 5474 5472 5470 5469 5467 5465 5463 5461 5458 5457 5454 5452 5450 5448 5446 5443 5441 5439 5437 5435 5434 5432 5430 5428 5427 5425 5422 5420 5418 5415 5413 5411 5409 5406 5403 5400 5398 5395 5392 5390 5387 5384 5381 5378 5375 5372 5369 5366 5362 5359 5356 5353 5350 5347 5345 5342 5339 5335 5332 5329 5327 5324 5323 5321 5320 5319 5318 5316 5315 5314 5313 5312 5311 5310 5308 5305 5303 5302 5300 5297
5476 5474 5472 5470 5468 5466 5465 5463 5461 5460 5458 5456 5453 5451 5450 5447 5445 5442 5440 5438 5436 5434 5432 5430 5428 5427 5425 5423 5422 5420 5418 5416 5414 5411 5408 5406 5404 5402 5400 5397 5394 5391 5389 5386 5383 5380 5377 5374 5371 5369 5366 5363 5360 5357 5354 5351 5348 5345 5342 5340 5337 5334 5331 5328 5325 5323 5321 5319 5317 5316 5315 5314 5313 5312 5311 5310 5309 5307 5306 5304 5303 5301 5299 5297 5294
5468 5466 5464 5462 5460 5459 5457 5456 5454 5452 5451 5448 5446 5444 5442 5440 5437 5435 5433 5431 5429 5427 5425 5423 5421 5420 5418 5416 5414 5413 5411 5409 5407 5404 5402 5399 5397 5394 5392 5390 5387 5385 5383 5379 5377 5374 5371 5368 5365 5363 5360 5357 5354 5351 5348 5345 5342 5340 5338 5335 5333 5330 5327 5324 5321 5319 5317 5315 5314 5313 5312 5311 5310 5309 5308 5306 5305 5304 5303 5301 5300 5298 5296 5294 5291
5460 5458 5456 5455 5453 5451 5450 5448 5447 5445 5443 5441 5439 5436 5434 5432 5430 5427 5425 5423 5421 5420 5418 5416 5414 5413 5411 5409 5407 5405 5403 5401 5399 5397 5394 5392 5390 5388 5386 5383 5381 5378 5376 5373 5370 5367 5364 5362 5359 5356 5354 5351 5348 5345 5342 5339 5336 5334 5332 5331 5328 5325 5323 5320 5317 5315 5314 5312 5311 5310 5308 5307 5307 5306 5305 5303 5302 5301 5300 5298 5297 5295 5293 5291 5288
5452 5450 5448 5447 5445 5444 5442 5441 5439 5437 5435 5434 5431 5429 5426 5424 5422 5420 5418 5416 5414 5412 5411 5409 5407 5406 5404 5401 5399 5397 5395 5393 5391 5389 5386 5384 5382 5381 5379 5378 5375 5372 5369 5366 5364 5361 5358 5355 5353 5350 5347 5345 5342 5339 5336 5333 5330 5328 5327 5326 5323 5321 5318 5316 5314 5312 5310 5309 5308 5307 5306 5305 5304 5303 5302 5301 5299 5298 5297 5295 5294 5292 5290 5288 5285
5443 5442 5440 5439 5438 5436 5434 5433 5431 5429 5427 5425 5424 5421 5419 5416 5414 5412 5410 5408 5406 5404 5402 5401 5399 5398 5396 5393 5391 5388 5386 5384 5382 5380 5379 5377 5375 5373 5372 5371 5369 5366 5363 5360 5357 5354 5351 5349 5346 5344 5341 5338 5336 5333 5330 5327 5324 5323 5322 5320 5319 5316 5314 5312 5310 5308 5307 5306 5305 5304 5303 5302 5301 5300 5299 5298 5297 5295 5294 5292 5291 5289 5287 5285 5283
5435 5434 5433 5432 5430 5428 5426 5425 5423 5421 5419 5417 5415 5413 5411 5409 5406 5404 5402 5400 5398 5396 5394 5392 5390 5389 5387 5385 5382 5380 5378 5376 5374 5372 5370 5369 5367 5366 5364 5363 5361 5359 5356 5353 5350 5347 5345 5342 5340 5337 5334 5332 5330 5327 5324 5321 5318 5317 5317 5315 5314 5312 5310 5308 5306 5305 5304 5303 5302 5301 5301 5300 5299 5298 5297 5296 5294 5293 5291 5290 5288 5286 5285 5283 5282
5428 5426 5425 5423 5422 5420 5418 5417 5415 5413 5410 5408 5406 5404 5402 5401 5399 5397 5394 5392 5390 5388 5386 5384 5382 5380 5378 5375 5373 5371 5369 5367 5365 5364 5362 5360 5359 5358 5356 5355 5353 5351 5349 5346 5343 5341 5338 5336 5333 5330 5328 5326 5323 5321 5318 5315 5313 5312 5311 5310 5309 5307 5306 5305 5303 5301 5300 5300 5299 5299 5298 5297 5296 5295 5294 5293 5292 5290 5289 5287 5286 5284 5283 5282 5281
5420 5418 5417 5415 5414 5412 5410 5408 5406 5404 5401 5399 5398 5396 5394 5392 5390 5389 5386 5384 5382 5380 5377 5375 5373 5371 5368 5366 5364 5363 5361 5359 5357 5355 5353 5352 5350 5349 5348 5347 5345 5343 5341 5338 5336 5333 5331 5329 5326 5324 5321 5319 5317 5314 5311 5309 5308 5307 5306 5305 5304 5303 5302 5301 5299 5298 5298 5297 5297 5296 5295 5295 5294 5293 5292 5290 5289 5288 5287 5285 5284 5283 5282 5281 5280
5412 5410 5409 5407 5405 5403 5401 5399 5397 5395 5393 5391 5389 5387 5385 5383 5381 5379 5377 5375 5373 5371 5369 5366 5364 5362 5359 5356 5354 5353 5351 5350 5348 5346 5345 5343 5342 5340 5339 5338 5336 5335 5333 5331 5328 5326 5324 5322 5319 5317 5314 5312 5310 5307 5305 5303 5303 5302 5301 5301 5300 5299 5298 5297 5296 5295 5295 5295 5294 5294 5293 5292 5292 5290 5289 5288 5287 5286 5285 5284 5283 5282 5281 5280 5279
5404 5402 5400 5398 5396 5394 5392 5390 5388 5386 5384 5382 5380 5378 5375 5373 5371 5369 5367 5365 5363 5361 5359 5356 5354 5352 5350 5347 5344 5343 5341 5340 5339 5337 5336 5334 5333 5332 5331 5329 5328 5326 5325 5323 5320 5318 5316 5314 5312 5310 5307 5305 5303 5301 5299 5298 5298 5297 5297 5296 5296 5295 5295 5294 5293 5292 5292 5292 5292 5291 5291 5290 5289 5288 5287 5286 5285 5284 5283 5283 5282 5281 5280 5279 5277
5395 5393 5391 5389 5387 5385 5383 5381 5378 5376 5374 5371 5369 5367 5365 5363 5360 5358 5356 5354 5353 5351 5348 5346 5344 5342 5340 5338 5336 5334 5332 5330 5329 5328 5326 5325 5324 5323 5322 5320 5319 5318 5317 5315 5313 5310 5308 5306 5305 5303 5300 5298 5296 5295 5293 5293 5293 5293 5292 5292 5292 5292 5291 5291 5290 5290 5290 5290 5289 5289 5289 5288 5287 5286 5285 5284 5283 5283 5282 5282 5281 5280 5279 5277 5276
5386 5384 5382 5380 5377 5375 5372 5370 5367 5365 5362 5360 5358 5356 5354 5351 5349 5347 5345 5343 5341 5339 5337 5335 5333 5331 5329 5327 5326 5324 5323 5321 5319 5318 5316 5315 5314 5314 5313 5312 5310 5309 5308 5306 5305 5303 5300 5298 5296 5295 5293 5291 5290 5289 5288 5288 5288 5288 5288 5288 5288 5288 5288 5287 5287 5287 5287 5287 5287 5287 5286 5286 5285 5284 5283 5282 5282 5282 5282 5281 5280 5279 5278 5276 5274
5377 5374 5371 5369 5366 5364 5361 5358 5356 5353 5350 5348 5345 5343 5341 5339 5337 5334 5333 5331 5329 5327 5325 5323 5321 5319 5318 5316 5315 5314 5313 5311 5309 5308 5307 5306 5305 5304 5303 5302 5301 5300 5298 5297 5296 5295 5293 5290 5288 5287 5286 5284 5283 5283 5283 5284 5284 5284 5284 5285 5285 5285 5285 5285 5285 5285 5285 5285 5285 5285 5284 5284 5283 5282 5282 5281 5281 5281 5281 5280 5279 5278 5277 5275 5274
5366 5363 5360 5357 5354 5352 5349 5346 5343 5340 5337 5335 5333 5330 5328 5326 5324 5322 5320 5318 5317 5315 5313 5311 5310 5308 5307 5305 5304 5303 5302 5301 5300 5298 5297 5296 5295 5294 5293 5293 5292 5290 5289 5288 5287 5285 5284 5282 5281 5280 5279 5278 5278 5278 5278 5279 5279 5280 5280 5281 5281 5282 5282 5282 5282 5283 5283 5283 5283 5283 5282 5282 5281 5281 5280 5281 5281 5280 5280 5279 5278 5277 5276 5274 5272
5355 5352 5349 5345 5342 5339 5336 5333 5330 5327 5324 5321 5319 5317 5315 5313 5311 5309 5307 5306 5304 5303 5301 5300 5298 5297 5295 5294 5293 5292 5291 5290 5289 5288 5287 5286 5286 5285 5284 5283 5282 5281 5280 5279 5278 5276 5275 5274 5274 5273 5272 5272 5273 5273 5274 5274 5275 5276 5277 5278 5278 5279 5279 5280 5280 5280 5281 5281 5281 5281 5280 5280 5280 5279 5280 5280 5280 5280 5279 5279 5277 5276 5275 5273 5271
5343 5340 5336 5332 5329 5325 5322 5319 5316 5313 5310 5307 5305 5303 5301 5299 5298 5296 5295 5293 5292 5290 5289 5288 5286 5285 5284 5283 5282 5281 5280 5280 5279 5278 5277 5276 5276 5275 5275 5274 5272 5271 5270 5269 5269 5268 5267 5267 5267 5267 5267 5267 5268 5268 5269 5270 5271 5273 5274 5275 5276 5276 5277 5277 5278 5278 5279 5279 5279 5279 5279 5278 5278 5278 5279 5279 5280 5279 5279 5278 5277 5275 5274 5272 5270
5329 5326 5322 5318 5315 5311 5308 5304 5301 5298 5296 5293 5291 5289 5287 5286 5284 5283 5282 5280 5279 5278 5276 5275 5274 5273 5272 5272 5271 5270 5269 5269 5268 5268 5267 5266 5266 5265 5265 5264 5263 5262 5262 5261 5261 5261 5260 5260 5260 5261 5262 5262 5263 5264 5265 5266 5268 5269 5271 5272 5273 5274 5274 5275 5276 5276 5277 5277 5277 5277 5277 5277 5277 5278 5279 5279 5279 5278 5278 5277 5276 5275 5273 5271 5268
5315 5311 5307 5304 5300 5297 5293 5290 5287 5284 5282 5280 5277 5276 5274 5272 5271 5269 5268 5267 5266 5265 5264 5263 5262 5261 5261 5260 5260 5259 5258 5257 5257 5257 5256 5256 5255 5255 5255 5254 5254 5254 5254 5253 5254 5254 5254 5254 5255 5256 5257 5258 5258 5259 5261 5263 5265 5267 5268 5269 5270 5271 5272 5273 5274 5274 5275 5275 5275 5275 5276 5276 5277 5277 5278 5278 5278 5278 5277 5276 5275 5274 5272 5270 5267
5300 5296 5293 5289 5286 5283 5280 5277 5274 5272 5269 5267 5265 5263 5261 5260 5258 5257 5256 5255 5254 5253 5252 5251 5250 5250 5249 5249 5248 5248 5248 5247 5247 5247 5246 5246 5246 5246 5246 5246 5246 5246 5246 5246 5247 5247 5248 5249 5250 5251 5252 5253 5254 5256 5258 5260 5262 5264 5266 5267 5268 5269 5270 5271 5272 5273 5273 5274 5274 5274 5274 5275 5276 5277 5278 5278 5277 5277 5276 5276 5274 5273 5271 5269 5267
5286 5283 5280 5277 5274 5271 5268 5266 5263 5261 5259 5257 5255 5252 5251 5249 5247 5246 5244 5243 5242 5241 5241 5240 5239 5239 5238 5238 5238 5238 5238 5238 5237 5237 5237 5238 5238 5238 5238 5239 5239 5239 5240 5240 5241 5242 5243 5244 5245 5247 5248 5249 5251 5253 5256 5258 5260 5262 5263 5265 5266 5267 5268 5269 5270 5271 5272 5272 5272 5273 5274 5275 5276 5277 5277 5277 5277 5276 5276 5275 5274 5272 5270 5268 5266
5275 5271 5268 5266 5263 5261 5259 5256 5254 5252 5250 5248 5246 5244 5242 5240 5238 5237 5235 5234 5233 5232 5231 5231 5230 5230 5229 5229 5229 5229 5229 5230 5230 5230 5230 5231 5231 5231 5232 5232 5232 5233 5234 5234 5235 5237 5238 5239 5241 5242 5243 5245 5248 5251 5253 5256 5258 5260 5261 5262 5264 5266 5267 5268 5269 5270 5270 5271 5271 5272 5274 5275 5276 5276 5276 5276 5276 5276 5275 5274 5273 5272 5270 5267 5265
5264 5261 5259 5256 5254 5252 5250 5248 5246 5244 5242 5240 5238 5236 5234 5232 5231 5229 5228 5227 5226 5224 5224 5223 5223 5222 5222 5222 5222 5223 5223 5223 5224 5224 5224 5225 5225 5225 5226 5226 5227 5227 5228 5229 5230 5232 5233 5235 5236 5238 5240 5243 5246 5249 5251 5254 5256 5258 5259 5261 5263 5264 5265 5267 5267 5268 5269 5270 5271 5272 5274 5275 5275 5276 5276 5276 5276 5275 5275 5274 5272 5271 5269 5267 5265
5255 5252 5249 5247 5245 5243 5241 5239 5238 5236 5235 5233 5231 5229 5228 5226 5225 5223 5222 5220 5219 5218 5218 5217 5217 5217 5217 5217 5217 5217 5218 5218 5219 5219 5219 5219 5219 5220 5220 5220 5221 5222 5223 5224 5225 5227 5228 5230 5232 5235 5238 5241 5244 5247 5250 5252 5254 5256 5258 5259 5261 5263 5264 5265 5266 5267 5268 5269 5271 5272 5274 5275 5275 5276 5276 5276 5276 5275 5274 5273 5272 5271 5269 5267 5264
5247 5244 5241 5238 5236 5234 5232 5231 5230 5228 5227 5226 5225 5223 5222 5220 5219 5218 5216 5215 5214 5213 5213 5212 5212 5212 5212 5212 5213 5213 5213 5214 5214 5214 5214 5214 5214 5215 5215 5215 5216 5216 5217 5219 5220 5222 5224 5227 5230 5233 5236 5240 5243 5245 5248 5250 5252 5254 5256 5258 5260 5261 5263 5264 5265 5266 5267 5269 5271 5272 5273 5274 5275 5275 5276 5275 5275 5275 5274 5273 5272 5270 5269 5267 5264
5240 5237 5234 5231 5228 5225 5223 5222 5221 5220 5220 5219 5218 5217 5216 5215 5214 5212 5211 5210 5209 5209 5208 5208 5208 5208 5209 5209 5209 5209 5209 5209 5209 5209 5209 5209 5209 5209 5209 5209 5210 5211 5212 5214 5216 5218 5221 5224 5228 5232 5235 5238 5241 5244 5246 5249 5251 5253 5255 5257 5259 5260 5261 5262 5264 5265 5267 5269 5271 5272 5273 5274 5275 5275 5275 5275 5275 5274 5273 5272 5271 5270 5268 5267 5264